This is the latest recevied weather packets stored in our database for station/object KD0RIH. If no packets are shown the sender has not sent any weather packets the latest 1 day(s).
| Time | Temp. | Humidity | Pressure | Rain* | Wind** | Luminosity | Snow |
|---|---|---|---|---|---|---|---|
| 1778030268 | 12.22° C | 69% | 1011.6 hPa | 0 mm | 0.45 m/s, 270° | 1 W/m² | - |
| 1778029964 | 12.22° C | 69% | 1011.7 hPa | 0 mm | 0.89 m/s, 249° | 1 W/m² | - |
| 1778029662 | 12.22° C | 68% | 1011.8 hPa | 0 mm | 0.45 m/s, 292° | 2 W/m² | - |
| 1778029359 | 12.22° C | 68% | 1011.9 hPa | 0 mm | 0 m/s | 3 W/m² | - |
| 1778029057 | 12.78° C | 66% | 1011.6 hPa | 0 mm | 0.45 m/s, 288° | 4 W/m² | - |
| 1778028753 | 12.78° C | 63% | 1011.6 hPa | 0 mm | 0 m/s | 5 W/m² | - |
| 1778028449 | 12.78° C | 59% | 1011.5 hPa | 0 mm | 0 m/s | 9 W/m² | - |
| 1778028147 | 12.78° C | 57% | 1011.5 hPa | 0 mm | 0 m/s | 14 W/m² | - |
| 1778027842 | 13.33° C | 53% | 1011.4 hPa | 0 mm | 0 m/s | 14 W/m² | - |
| 1778027539 | 13.33° C | 53% | 1011.1 hPa | 0 mm | 0 m/s | 20 W/m² | - |
| 1778027235 | 13.33° C | 52% | 1011.2 hPa | 0 mm | 0 m/s | 24 W/m² | - |
| 1778026931 | 13.33° C | 51% | 1011.5 hPa | 0 mm | 0 m/s | 21 W/m² | - |
| 1778026627 | 13.33° C | 49% | 1011.2 hPa | 0 mm | 0 m/s | 26 W/m² | - |
| 1778026325 | 13.33° C | 48% | 1011.2 hPa | 0 mm | 0 m/s | 38 W/m² | - |
| 1778026022 | 13.33° C | 47% | 1011.1 hPa | 0 mm | 0 m/s | 59 W/m² | - |
| 1778025719 | 13.89° C | 47% | 1011.6 hPa | 0 mm | 0 m/s | 37 W/m² | - |
| 1778025417 | 13.89° C | 48% | 1011.2 hPa | 0 mm | 0 m/s | 33 W/m² | - |
| 1778025114 | 13.33° C | 49% | 1011.5 hPa | 0 mm | 0 m/s | 39 W/m² | - |
| 1778024811 | 13.33° C | 47% | 1011.7 hPa | 0 mm | 0 m/s | 31 W/m² | - |
| 1778024508 | 13.33° C | 47% | 1011.6 hPa | 0 mm | 0 m/s | 41 W/m² | - |
| 1778024205 | 13.33° C | 48% | 1011.4 hPa | 0 mm | 0 m/s | 36 W/m² | - |
| 1778023902 | 13.89° C | 47% | 1011.2 hPa | 0 mm | 0 m/s | 78 W/m² | - |
| 1778023600 | 14.44° C | 45% | 1011.5 hPa | 0 mm | 0 m/s | 54 W/m² | - |
| 1778023297 | 14.44° C | 46% | 1011.4 hPa | 0 mm | 0 m/s | 49 W/m² | - |
| 1778022994 | 14.44° C | 46% | 1011.4 hPa | 0 mm | 0 m/s | 51 W/m² | - |
* Rain latest hour (hover to see other rain measurements)
** Current wind speed in m/s (hover to see current wind gust speed)